Sexton Summit, OR

1:38 AM PST on November 22, 2017 (GMT -0800)
Sexton Summit

Weather History for KSXT - May, 2013

Change the Weather History Date:

Saturday, May 4, 2013

  Actual Average Record
Temperature  
Mean Temperature 62 °F -  
Max Temperature 73 °F 53 °F 79 °F (2017)
Min Temperature 54 °F 35 °F 30 °F (1999)
Degree Days  
Heating Degree Days 2    
Growing Degree Days 12 (Base 50)    
Moisture  
Dew Point 29 °F    
Average Humidity 29    
Maximum Humidity 41    
Minimum Humidity 19    
Precipitation  
Precipitation 0.00 in - - ()
Sea Level Pressure  
Sea Level Pressure 29.85 in    
Wind  
Wind Speed 9 mph (ENE)    
Max Wind Speed 18 mph    
Max Gust Speed 29 mph    
Visibility 10 miles    
Events      
Averages and records for this station are not official NWS values.
T = Trace of Precipitation, MM = Missing Value Source: NWS Daily Summary

Daily Weather History Graph

Daily Weather History Graph

Search for Another Location

Airport or City:

Trip Planner

Search our weather history database for the weather conditions in past years. The results will help you decide how hot, cold, wet, or windy it might be!

Date:

Astronomy

May. 04, 2013 Rise Set
Actual Time 6:03 AM PDT 8:17 PM PDT
Civil Twilight 5:32 AM PDT 8:48 PM PDT
Nautical Twilight 4:54 AM PDT 9:27 PM PDT
Astronomical Twilight 4:11 AM PDT 10:10 PM PDT
Moon 3:12 AM PDT (5/4) 3:14 PM PDT (5/4)
Length of Visible Light 15h 16m
Length of Day
14h 13m
Waning Crescent, 26% of the Moon is Illuminated
May 4
Waning Crescent
May 9
New
May 17
First Quarter
May 24
Full
May 31
Last Quarter

Hourly Weather History & Observations

Time (PDT) Temp. Dew Point Humidity Pressure Visibility Wind Dir Wind Speed Gust Speed Precip Events Conditions
12:56 AM 57.9 °F 34.0 °F 41% 30.02 in 10.0 mi ENE 15.0 mph 21.9 mph N/A   Clear
1:56 AM 57.9 °F 32.0 °F 37% 29.99 in 10.0 mi ENE 15.0 mph 20.7 mph N/A   Clear
2:56 AM 55.9 °F 28.0 °F 34% 29.97 in 10.0 mi East 5.8 mph - N/A   Clear
3:56 AM 54.0 °F 25.0 °F 33% 29.95 in 10.0 mi East 6.9 mph 16.1 mph N/A   Clear
4:56 AM 55.0 °F 25.0 °F 31% 29.95 in 10.0 mi East 8.1 mph - N/A   Clear
5:56 AM 54.0 °F 25.0 °F 33% 29.95 in 10.0 mi East 8.1 mph - N/A   Clear
6:56 AM 55.0 °F 27.0 °F 34% 29.96 in 10.0 mi East 5.8 mph - N/A   Clear
7:56 AM 59.0 °F 28.9 °F 32% 29.95 in 10.0 mi Variable 4.6 mph - N/A   Clear
8:56 AM 60.1 °F 28.9 °F 31% 29.93 in 10.0 mi East 10.4 mph 23.0 mph N/A   Clear
9:56 AM 63.0 °F 30.9 °F 30% 29.91 in 10.0 mi Variable 4.6 mph 20.7 mph N/A   Clear
10:56 AM 66.0 °F 30.9 °F 27% 29.89 in 10.0 mi Variable 3.5 mph - N/A   Clear
11:56 AM 64.9 °F 30.0 °F 27% 29.86 in 10.0 mi Variable 4.6 mph - N/A   Clear
12:56 PM 68.0 °F 28.0 °F 22% 29.82 in 10.0 mi NNE 8.1 mph - N/A   Clear
1:56 PM 69.1 °F 32.0 °F 25% 29.79 in 10.0 mi Variable 4.6 mph - N/A   Mostly Cloudy
2:56 PM 71.1 °F 32.0 °F 24% 29.77 in 10.0 mi Variable 6.9 mph - N/A   Scattered Clouds
3:56 PM 69.1 °F 36.0 °F 30% 29.75 in 10.0 mi Variable 6.9 mph - N/A   Mostly Cloudy
4:56 PM 66.9 °F 28.0 °F 23% 29.75 in 10.0 mi ENE 9.2 mph - N/A   Mostly Cloudy
5:56 PM 66.9 °F 23.0 °F 19% 29.73 in 10.0 mi ENE 10.4 mph 24.2 mph N/A   Mostly Cloudy
6:56 PM 66.0 °F 24.1 °F 20% 29.73 in 10.0 mi ENE 18.4 mph 28.8 mph N/A   Scattered Clouds
7:56 PM 63.0 °F 26.1 °F 25% 29.74 in 10.0 mi ENE 9.2 mph 23.0 mph N/A   Clear
8:56 PM 61.0 °F 27.0 °F 27% 29.74 in 10.0 mi East 9.2 mph 20.7 mph N/A   Clear
9:56 PM 59.0 °F 28.0 °F 31% 29.75 in 10.0 mi Variable 6.9 mph 18.4 mph N/A   Clear
10:56 PM 59.0 °F 28.0 °F 31% 29.73 in 10.0 mi Variable 6.9 mph 20.7 mph N/A   Clear
11:56 PM 57.0 °F 30.0 °F 36% 29.74 in 10.0 mi NE 9.2 mph - N/A   Clear